| time (UTC) | temp F | wind direction | speed MPH | gust MPH | rain 1hr in | rain 24hr in | rain mn in | humidity % | barometer mb |
| 20260508174602 | 46 | 265 | 1.0 | 4.0 | 0.00 | 0.00 | 0.00 | 70 | 1011.3 |
| 20260508173041 | 46 | 286 | 1.0 | 5.0 | 0.00 | 0.00 | 0.00 | 72 | 1011.4 |
| 20260508171549 | 45 | 149 | 1.0 | 3.0 | 0.00 | 0.00 | 0.00 | 72 | 1011.3 |
| 20260508170049 | 45 | 221 | 1.0 | 6.0 | 0.00 | 0.00 | 0.00 | 75 | 1011.2 |
| 20260508164549 | 43 | 232 | 1.0 | 4.0 | 0.00 | 0.00 | 0.00 | 82 | 1011.3 |
| 20260508163048 | 41 | 103 | 1.0 | 4.0 | 0.00 | 0.00 | 0.00 | 86 | 1011.3 |
| 20260508161542 | 40 | 34 | 1.0 | 4.0 | 0.00 | 0.00 | 0.00 | 88 | 1011.6 |
| 20260508160046 | 39 | 9 | 1.0 | 4.0 | 0.00 | 0.00 | 0.00 | 89 | 1011.8 |
| 20260508154545 | 39 | 47 | 1.0 | 4.0 | 0.00 | 0.00 | 0.00 | 90 | 1012.0 |
| 20260508153047 | 39 | 59 | 1.0 | 4.0 | 0.00 | 0.00 | 0.00 | 90 | 1011.6 |
| 20260508151540 | 39 | 111 | 1.0 | 3.0 | 0.00 | 0.00 | 0.00 | 89 | 1011.4 |
| 20260508150049 | 38 | 298 | 1.0 | 3.0 | 0.00 | 0.00 | 0.00 | 89 | 1011.5 |
| 20260508144553 | 38 | 80 | 1.0 | 3.0 | 0.00 | 0.00 | 0.00 | 89 | 1011.5 |
| 20260508143046 | 39 | 61 | 1.0 | 3.0 | 0.00 | 0.00 | 0.00 | 88 | 1011.5 |
| 20260508141555 | 39 | 76 | 1.0 | 2.0 | 0.00 | 0.00 | 0.00 | 88 | 1011.4 |
| 20260508140043 | 39 | 265 | 0.0 | 4.0 | 0.00 | 0.00 | 0.00 | 87 | 1011.4 |
| 20260508134558 | 39 | 293 | 2.0 | 6.0 | 0.00 | 0.00 | 0.00 | 85 | 1011.1 |
| 20260508133048 | 40 | 265 | 0.0 | 2.0 | 0.00 | 0.00 | 0.00 | 85 | 1010.8 |
| 20260508131548 | 40 | 0 | 0.0 | 3.0 | 0.00 | 0.00 | 0.00 | 83 | 1010.6 |
| 20260508130044 | 40 | 282 | 1.0 | 2.0 | 0.00 | 0.00 | 0.00 | 82 | 1010.7 |
| 20260508124542 | 40 | 247 | 1.0 | 3.0 | 0.00 | 0.00 | 0.00 | 82 | 1010.4 |
| 20260508123103 | 40 | 291 | 1.0 | 3.0 | 0.00 | 0.00 | 0.00 | 85 | 1010.3 |
| 20260508121543 | 40 | 146 | 1.0 | 2.0 | 0.00 | 0.00 | 0.00 | 84 | 1010.4 |
| 20260508120048 | 39 | 137 | 0.0 | 2.0 | 0.00 | 0.00 | 0.00 | 85 | 1010.4 |
| 20260508114551 | 39 | 157 | 1.0 | 3.0 | 0.00 | 0.00 | 0.00 | 88 | 1010.3 |
| 20260508113057 | 38 | 51 | 0.0 | 2.0 | 0.00 | 0.00 | 0.00 | 87 | 1010.7 |
| 20260508111546 | 37 | 0 | 0.0 | 1.0 | 0.00 | 0.00 | 0.00 | 87 | 1010.7 |
| 20260508110044 | 37 | 51 | 0.0 | 2.0 | 0.00 | 0.00 | 0.00 | 86 | 1010.7 |
| 20260508104547 | 36 | 0 | 0.0 | 1.0 | 0.00 | 0.00 | 0.00 | 86 | 1010.5 |
| 20260508103041 | 36 | 51 | 0.0 | 2.0 | 0.00 | 0.00 | 0.00 | 86 | 1010.3 |
| 20260508101544 | 36 | 119 | 0.0 | 2.0 | 0.00 | 0.00 | 0.00 | 84 | 1010.3 |
| 20260508100043 | 36 | 279 | 1.0 | 2.0 | 0.00 | 0.00 | 0.00 | 84 | 1010.4 |
| 20260508094606 | 36 | 286 | 1.0 | 3.0 | 0.00 | 0.01 | 0.00 | 84 | 1010.4 |
| 20260508093041 | 36 | 309 | 1.0 | 2.0 | 0.00 | 0.01 | 0.00 | 82 | 1010.4 |
| 20260508091549 | 37 | 0 | 0.0 | 2.0 | 0.00 | 0.01 | 0.00 | 82 | 1010.4 |
| 20260508090052 | 37 | 9 | 1.0 | 2.0 | 0.00 | 0.01 | 0.00 | 82 | 1010.5 |
| 20260508084542 | 38 | 301 | 1.0 | 2.0 | 0.00 | 0.01 | 0.00 | 82 | 1010.1 |
| 20260508083046 | 38 | 9 | 1.0 | 2.0 | 0.00 | 0.01 | 0.00 | 82 | 1010.3 |
| 20260508081600 | 38 | 303 | 1.0 | 3.0 | 0.00 | 0.01 | 0.00 | 82 | 1010.2 |
| 20260508080041 | 39 | 319 | 1.0 | 3.0 | 0.00 | 0.01 | 0.00 | 82 | 1010.0 |
| 20260508074550 | 39 | 298 | 1.0 | 3.0 | 0.00 | 0.01 | 0.00 | 82 | 1009.6 |
| 20260508073048 | 40 | 301 | 1.0 | 3.0 | 0.00 | 0.01 | 0.00 | 83 | 1009.8 |
| 20260508071547 | 40 | 280 | 1.0 | 3.0 | 0.00 | 0.01 | 0.00 | 83 | 1009.9 |
| 20260508070048 | 40 | 292 | 1.0 | 2.0 | 0.00 | 0.01 | 0.00 | 83 | 1009.8 |
| 20260508064545 | 40 | 273 | 1.0 | 2.0 | 0.00 | 0.01 | 0.00 | 79 | 1009.5 |
| 20260508063052 | 40 | 255 | 0.0 | 2.0 | 0.00 | 0.01 | 0.00 | 77 | 1009.5 |
| 20260508061553 | 40 | 247 | 0.0 | 2.0 | 0.00 | 0.01 | 0.00 | 76 | 1009.7 |
| 20260508060040 | 40 | 279 | 1.0 | 2.0 | 0.00 | 0.01 | 0.00 | 75 | 1009.8 |
| 20260508054547 | 41 | 291 | 1.0 | 2.0 | 0.00 | 0.01 | 0.00 | 74 | 1009.8 |
| 20260508053045 | 41 | 291 | 1.0 | 3.0 | 0.00 | 0.01 | 0.00 | 74 | 1009.9 |
| 20260508051543 | 41 | 265 | 1.0 | 2.0 | 0.00 | 0.01 | 0.00 | 73 | 1009.9 |
| 20260508050042 | 40 | 282 | 1.0 | 2.0 | 0.00 | 0.01 | 0.00 | 73 | 1009.9 |
| 20260508044542 | 40 | 265 | 0.0 | 2.0 | 0.00 | 0.01 | 0.00 | 73 | 1009.9 |
| 20260508043051 | 40 | 292 | 1.0 | 3.0 | 0.00 | 0.01 | 0.00 | 74 | 1010.1 |
| 20260508041546 | 41 | 245 | 2.0 | 4.0 | 0.00 | 0.01 | 0.00 | 72 | 1009.8 |
| 20260508040053 | 42 | 309 | 1.0 | 2.0 | 0.00 | 0.01 | 0.00 | 64 | 1009.6 |
| 20260508034543 | 41 | 296 | 1.0 | 2.0 | 0.00 | 0.02 | 0.01 | 68 | 1009.8 |
| 20260508033040 | 41 | 309 | 0.0 | 2.0 | 0.00 | 0.02 | 0.01 | 67 | 1009.8 |
| 20260508031548 | 42 | 309 | 0.0 | 2.0 | 0.00 | 0.02 | 0.01 | 66 | 1009.7 |
| 20260508030049 | 42 | 9 | 0.0 | 2.0 | 0.00 | 0.02 | 0.01 | 65 | 1009.4 |
| 20260508024551 | 42 | 334 | 1.0 | 2.0 | 0.00 | 0.02 | 0.01 | 65 | 1009.3 |
| 20260508023049 | 42 | 44 | 1.0 | 3.0 | 0.00 | 0.02 | 0.01 | 65 | 1009.2 |
| 20260508021550 | 42 | 44 | 1.0 | 2.0 | 0.00 | 0.02 | 0.01 | 64 | 1009.2 |
| 20260508020050 | 43 | 51 | 1.0 | 2.0 | 0.00 | 0.02 | 0.01 | 64 | 1009.2 |
| 20260508014544 | 43 | 83 | 1.0 | 2.0 | 0.00 | 0.02 | 0.01 | 63 | 1009.2 |
| 20260508013049 | 44 | 65 | 1.0 | 3.0 | 0.00 | 0.02 | 0.01 | 63 | 1008.8 |
| 20260508011544 | 44 | 67 | 1.0 | 3.0 | 0.00 | 0.02 | 0.01 | 62 | 1008.9 |
| 20260508010042 | 45 | 56 | 1.0 | 3.0 | 0.00 | 0.02 | 0.01 | 63 | 1008.9 |
| 20260508004546 | 46 | 44 | 1.0 | 3.0 | 0.00 | 0.02 | 0.01 | 60 | 1008.8 |
| 20260508003041 | 46 | 9 | 1.0 | 2.0 | 0.00 | 0.02 | 0.01 | 59 | 1008.7 |
| 20260508001547 | 46 | 9 | 1.0 | 2.0 | 0.00 | 0.02 | 0.01 | 59 | 1008.6 |
| 20260508000051 | 47 | 0 | 1.0 | 2.0 | 0.00 | 0.02 | 0.01 | 58 | 1008.5 |
| 20260507234542 | 48 | 309 | 1.0 | 4.0 | 0.00 | 0.02 | 0.01 | 57 | 1008.3 |
| 20260507233047 | 48 | 44 | 1.0 | 4.0 | 0.00 | 0.02 | 0.01 | 58 | 1008.3 |
| 20260507231553 | 48 | 38 | 1.0 | 3.0 | 0.00 | 0.02 | 0.01 | 55 | 1008.2 |
| 20260507230051 | 49 | 19 | 1.0 | 5.0 | 0.00 | 0.02 | 0.01 | 55 | 1008.1 |
| 20260507224546 | 49 | 30 | 1.0 | 4.0 | 0.00 | 0.02 | 0.01 | 56 | 1008.1 |
| 20260507223042 | 49 | 316 | 1.0 | 3.0 | 0.00 | 0.02 | 0.01 | 56 | 1008.1 |
| 20260507221542 | 50 | 34 | 2.0 | 5.0 | 0.00 | 0.02 | 0.01 | 53 | 1008.1 |
| 20260507220040 | 50 | 325 | 1.0 | 5.0 | 0.00 | 0.02 | 0.01 | 56 | 1008.2 |
| 20260507214601 | 51 | 347 | 2.0 | 8.0 | 0.00 | 0.02 | 0.01 | 54 | 1008.3 |
| 20260507213046 | 50 | 309 | 1.0 | 6.0 | 0.00 | 0.02 | 0.01 | 56 | 1008.3 |
| 20260507211542 | 50 | 36 | 2.0 | 8.0 | 0.00 | 0.02 | 0.01 | 54 | 1008.5 |
| 20260507210050 | 50 | 70 | 1.0 | 6.0 | 0.00 | 0.02 | 0.01 | 54 | 1008.4 |
| 20260507204546 | 51 | 30 | 2.0 | 5.0 | 0.00 | 0.02 | 0.01 | 51 | 1008.2 |
| 20260507203103 | 51 | 291 | 2.0 | 4.0 | 0.00 | 0.02 | 0.01 | 54 | 1008.2 |
| 20260507201555 | 51 | 13 | 3.0 | 13.0 | 0.00 | 0.02 | 0.01 | 51 | 1008.2 |
| 20260507200104 | 52 | 342 | 2.0 | 9.0 | 0.00 | 0.02 | 0.01 | 50 | 1008.5 |
| 20260507194543 | 52 | 41 | 1.0 | 11.0 | 0.00 | 0.04 | 0.01 | 51 | 1008.5 |
| 20260507193054 | 52 | 34 | 3.0 | 9.0 | 0.00 | 0.04 | 0.01 | 51 | 1008.8 |
| 20260507191547 | 53 | 57 | 4.0 | 8.0 | 0.00 | 0.04 | 0.01 | 50 | 1008.8 |
| 20260507190042 | 52 | 270 | 2.0 | 9.0 | 0.00 | 0.04 | 0.01 | 52 | 1008.9 |
| 20260507184556 | 53 | 46 | 2.0 | 11.0 | 0.00 | 0.05 | 0.01 | 52 | 1008.9 |
| 20260507183049 | 53 | 284 | 2.0 | 8.0 | 0.00 | 0.05 | 0.01 | 50 | 1009.1 |
| 20260507181543 | 53 | 312 | 3.0 | 9.0 | 0.00 | 0.05 | 0.01 | 46 | 1009.2 |
| 20260507180048 | 55 | 24 | 2.0 | 8.0 | 0.00 | 0.05 | 0.01 | 50 | 1009.2 |